Location: Cold Norton
(51.6667°N, 0.6667°E)
Time: 06:39:42
(UTC+00:00)

USA 281 - Pass Details

Date: 18 November 2025
Orbit: 1079 x 1080 km, 106.0° (Epoch: 08 December)

Event Time Altitude Azimuth Distance (km) Brightness Sun altitude
Exits shadow 19:58:24 56° 259° (WSW) 1,265 3.7 -36.0°
Drops below altitude 10° 20:04:36 10° 327° (NNW) 2,931 6.0 -36.9°
Sets 20:07:11 0° 332° (NNW) 3,890 6.7 -37.3°
